Orlando International, FL

1:49 PM EDT on August 18, 2017 (GMT -0400)
Orlando International

Weather History for KMCO - March, 2013

Change the Weather History Date:

Sunday, March 24, 2013

  Actual Average Record
Temperature  
Mean Temperature 75 °F 68 °F  
Max Temperature 84 °F 79 °F 96 °F (1907)
Min Temperature 65 °F 57 °F 35 °F (1968)
Degree Days  
Heating Degree Days 0 1  
Month to date heating degree days 111 52  
Since 1 July heating degree days 423 551  
Cooling Degree Days 10 4  
Month to date cooling degree days 45 87  
Year to date cooling degree days 245 191  
Growing Degree Days 24 (Base 50)    
Moisture  
Dew Point 68 °F    
Average Humidity 82    
Maximum Humidity 100    
Minimum Humidity 63    
Precipitation  
Precipitation 0.67 in 0.13 in 3.46 in (1930)
Month to date precipitation 1.27 2.87  
Year to date precipitation 2.18 7.60  
Sea Level Pressure  
Sea Level Pressure 29.72 in    
Wind  
Wind Speed 12 mph (SW)    
Max Wind Speed 56 mph    
Max Gust Speed 86 mph    
Visibility 9 miles    
Events Rain , Thunderstorm    
T = Trace of Precipitation, MM = Missing Value Source: NWS Daily Summary

Daily Weather History Graph

Daily Weather History Graph

Search for Another Location

Airport or City:

Trip Planner

Search our weather history database for the weather conditions in past years. The results will help you decide how hot, cold, wet, or windy it might be!

Date:

Astronomy

Mar. 24, 2013 Rise Set
Actual Time 7:24 AM EDT 7:38 PM EDT
Civil Twilight 7:00 AM EDT 8:02 PM EDT
Nautical Twilight 6:33 AM EDT 8:30 PM EDT
Astronomical Twilight 6:05 AM EDT 8:57 PM EDT
Moon 5:15 PM EDT (3/24) 5:21 AM EDT (3/24)
Length of Visible Light 13h 01m
Length of Day
12h 14m
Waxing Gibbous, 91% of the Moon is Illuminated
Mar 24
Waxing Gibbous
Mar 27
Full
Apr 3
Last Quarter
Apr 10
New
Apr 18
First Quarter

Hourly Weather History & Observations

Time (EDT) Temp. Heat Index Dew Point Humidity Pressure Visibility Wind Dir Wind Speed Gust Speed Precip Events Conditions
12:53 AM 66.9 °F - 64.9 °F 93% 29.86 in 10.0 mi East 6.9 mph - N/A   Partly Cloudy
1:53 AM 66.9 °F - 66.0 °F 97% 29.83 in 10.0 mi ESE 9.2 mph - N/A   Partly Cloudy
2:53 AM 68.0 °F - 66.0 °F 93% 29.80 in 10.0 mi ESE 8.1 mph - N/A   Mostly Cloudy
3:53 AM 68.0 °F - 66.9 °F 96% 29.78 in 10.0 mi ESE 3.5 mph - N/A   Mostly Cloudy
4:13 AM 68.0 °F - 66.2 °F 94% 29.77 in 10.0 mi SE 5.8 mph - N/A   Mostly Cloudy
4:47 AM 66.2 °F - 66.2 °F 100% 29.76 in 10.0 mi SSE 5.8 mph - N/A   Partly Cloudy
4:53 AM 66.9 °F - 66.0 °F 97% 29.75 in 9.0 mi SSE 6.9 mph - N/A   Partly Cloudy
5:53 AM 68.0 °F - 66.9 °F 96% 29.73 in 8.0 mi South 8.1 mph - N/A   Scattered Clouds
6:53 AM 69.1 °F - 66.9 °F 93% 29.72 in 10.0 mi South 8.1 mph - N/A   Mostly Cloudy
7:53 AM 70.0 °F - 66.9 °F 90% 29.70 in 10.0 mi South 11.5 mph - N/A   Overcast
8:00 AM 71.6 °F - 66.2 °F 83% 29.70 in 10.0 mi South 10.4 mph - N/A   Overcast
8:53 AM 72.0 °F - 68.0 °F 87% 29.71 in 10.0 mi SSW 9.2 mph - N/A   Overcast
9:43 AM 73.4 °F - 69.8 °F 88% 29.76 in 10.0 mi SW 6.9 mph - 0.00 in   Overcast
9:53 AM 73.9 °F - 70.0 °F 87% 29.75 in 10.0 mi SW 10.4 mph - 0.00 in   Overcast
10:26 AM 78.8 °F - 69.8 °F 74% 29.75 in 10.0 mi SSW 13.8 mph - N/A   Mostly Cloudy
10:53 AM 79.0 °F - 69.1 °F 72% 29.74 in 10.0 mi SW 20.7 mph 31.1 mph N/A   Overcast
11:53 AM 82.4 °F 86.3 °F 69.8 °F 66% 29.74 in 10.0 mi SW 27.6 mph 36.8 mph N/A   Overcast
12:53 PM 80.6 °F 83.2 °F 68.0 °F 65% 29.73 in 10.0 mi SW 23.0 mph 33.4 mph N/A   Overcast
1:53 PM 82.4 °F 85.4 °F 68.0 °F 62% 29.68 in 10.0 mi SW 15.0 mph 24.2 mph N/A   Overcast
2:35 PM 78.8 °F - 69.8 °F 74% 29.64 in 10.0 mi SSW 20.7 mph 32.2 mph 0.00 in Thunderstorm Thunderstorm
2:53 PM 64.9 °F - 64.0 °F 97% 29.73 in 2.0 mi West 16.1 mph 35.7 mph 0.37 in Rain , Thunderstorm Light Thunderstorms and Rain
3:13 PM 66.2 °F - 64.4 °F 94% 29.73 in 4.0 mi West 26.5 mph 39.1 mph 0.06 in Rain Rain
3:40 PM 66.2 °F - 64.4 °F 94% 29.68 in 7.0 mi West 19.6 mph 28.8 mph 0.22 in   Overcast
3:53 PM 68.0 °F - 64.4 °F 88% 29.69 in 3.0 mi West 19.6 mph 29.9 mph 0.23 in Rain Rain
4:11 PM 69.8 °F - 64.4 °F 83% 29.67 in 7.0 mi West 15.0 mph - 0.06 in   Overcast
4:29 PM 69.8 °F - 68.0 °F 94% 29.67 in 9.0 mi SW 6.9 mph - 0.07 in Rain Light Rain
4:53 PM 72.0 °F - 69.3 °F 91% 29.65 in 10.0 mi SSW 9.2 mph - 0.07 in   Scattered Clouds
5:53 PM 75.0 °F - 70.0 °F 84% 29.64 in 10.0 mi SW 9.2 mph - N/A   Mostly Cloudy
6:53 PM 75.2 °F - 71.6 °F 89% 29.66 in 10.0 mi SW 5.8 mph - N/A   Mostly Cloudy
7:53 PM 77.0 °F - 72.0 °F 84% 29.68 in 10.0 mi WSW 6.9 mph - N/A   Mostly Cloudy
8:53 PM 75.0 °F - 70.0 °F 84% 29.70 in 10.0 mi West 9.2 mph - N/A   Scattered Clouds
9:53 PM 73.4 °F - 69.8 °F 88% 29.72 in 9.0 mi West 10.4 mph - N/A   Scattered Clouds
10:53 PM 71.6 °F - 68.0 °F 88% 29.74 in 8.0 mi WSW 9.2 mph - N/A   Scattered Clouds
11:20 PM 71.6 °F - 68.0 °F 88% 29.75 in 8.0 mi West 9.2 mph - N/A   Mostly Cloudy
11:44 PM 71.6 °F - 68.0 °F 88% 29.75 in 8.0 mi West 11.5 mph - N/A   Scattered Clouds
11:53 PM 69.8 °F - 66.2 °F 88% 29.74 in 8.0 mi West 13.8 mph - N/A   Scattered Clouds